Total_Precipitation_Accumulation
1.91 1.93 1.88 1.83 1.80 1.81 1.85 1.81 1.68 1.58 1.46 1.38 1.29 1.29 1.29 1.21 1.20 1.28 1.28 1.33 1.46 1.49 1.45 1.47 1.51 1.61 1.75 1.79 1.92 2.04 2.28 2.54 2.65 2.34 2.04 1.85 1.93 1.98 2.03 1.98 1.93 1.87 1.75
1.69 1.72 1.77 1.63 1.55 1.56 1.58 1.56 1.44 1.40 1.36 1.29 1.23 1.21 1.18 1.15 1.14 1.12 1.10 1.12 1.23 1.27 1.30 1.35 1.27 1.34 1.53 1.65 1.78 1.87 2.02 2.21 2.39 2.32 2.06 1.96 1.92 1.97 2.07 2.06 1.83 1.67 1.59
1.32 1.44 1.55 1.44 1.34 1.35 1.34 1.31 1.30 1.26 1.23 1.15 1.11 1.06 1.00 1.04 1.08 1.08 1.04 1.04 1.05 1.07 1.16 1.24 1.26 1.39 1.47 1.59 1.72 1.78 1.93 1.97 2.18 2.18 1.97 1.95 1.95 1.95 2.10 2.01 1.78 1.76 1.42
1.20 1.22 1.29 1.31 1.28 1.24 1.22 1.18 1.12 1.06 1.04 0.98 0.93 0.92 0.93 0.91 0.89 0.92 0.94 0.97 1.02 1.03 1.06 1.12 1.19 1.31 1.45 1.64 1.68 1.78 1.93 2.05 2.14 2.19 2.08 2.03 2.03 2.07 2.20 2.22 2.02 1.83 1.56
1.22 1.24 1.22 1.21 1.13 1.13 1.15 1.12 0.99 0.95 0.89 0.87 0.85 0.85 0.86 0.83 0.76 0.79 0.89 0.94 1.05 1.09 1.11 1.10 1.08 1.15 1.32 1.46 1.52 1.72 1.99 2.14 2.15 2.19 2.14 2.11 2.08 2.19 2.12 2.04 2.02 1.88 1.63
1.25 1.28 1.23 1.20 1.13 1.10 1.12 1.12 1.05 1.02 0.98 0.90 0.89 0.85 0.79 0.69 0.71 0.73 0.78 0.91 1.03 1.07 1.15 1.14 1.01 0.99 1.03 1.09 1.18 1.33 1.61 1.87 2.02 2.10 2.07 2.03 1.99 2.04 2.05 1.99 2.03 2.05 1.87
1.21 1.19 1.24 1.23 1.15 1.07 1.02 1.12 1.12 1.11 1.02 0.97 0.92 0.85 0.80 0.72 0.66 0.61 0.62 0.76 0.95 1.05 1.12 1.14 0.97 0.83 0.97 1.06 1.08 1.09 1.20 1.43 1.73 1.97 2.00 1.84 1.94 2.03 2.13 2.11 2.04 2.05 1.98
1.14 1.08 1.10 1.13 1.14 1.09 1.08 1.11 1.12 1.16 1.13 1.02 0.91 0.88 0.88 0.69 0.62 0.58 0.59 0.70 0.88 0.94 0.96 1.00 1.06 1.05 0.99 1.03 1.09 1.21 1.37 1.48 1.55 1.58 1.77 1.80 1.82 1.87 1.90 1.93 1.99 2.02 1.90
1.03 1.02 0.97 0.95 0.97 0.99 0.98 1.06 1.17 1.19 1.12 0.96 0.88 0.92 0.88 0.71 0.63 0.60 0.60 0.72 0.84 0.86 0.79 0.78 0.84 0.91 0.88 0.95 1.13 1.38 1.57 1.75 1.59 1.55 1.62 1.78 1.77 1.63 1.55 1.72 2.01 2.14 1.96
0.91 0.84 0.85 0.90 0.90 0.92 0.97 1.05 1.07 1.11 1.08 0.91 0.81 0.81 0.77 0.69 0.60 0.54 0.58 0.65 0.78 0.81 0.86 0.83 0.85 0.86 0.87 0.98 1.19 1.53 1.75 1.84 1.66 1.55 1.67 1.82 1.75 1.67 1.65 1.76 2.01 2.05 1.96
0.75 0.72 0.74 0.77 0.79 0.80 0.93 0.99 0.98 0.93 0.96 0.93 0.86 0.79 0.73 0.62 0.54 0.52 0.53 0.55 0.65 0.77 0.83 0.91 0.95 0.95 0.90 1.00 1.21 1.47 1.70 1.76 1.69 1.65 1.69 1.75 1.80 1.83 1.74 1.74 1.84 1.86 1.90
0.67 0.66 0.67 0.68 0.61 0.63 0.85 0.92 0.91 0.93 0.89 0.88 0.92 0.89 0.75 0.62 0.49 0.40 0.40 0.44 0.53 0.78 0.90 0.92 0.94 0.95 0.94 1.06 1.19 1.48 1.75 1.89 1.76 1.63 1.56 1.55 1.55 1.58 1.58 1.50 1.50 1.51 1.57
0.67 0.71 0.67 0.61 0.62 0.60 0.66 0.73 0.80 0.88 0.81 0.76 0.78 0.77 0.67 0.56 0.46 0.32 0.28 0.32 0.43 0.59 0.78 0.93 0.92 0.88 1.01 1.28 1.46 1.63 1.84 1.98 1.85 1.62 1.51 1.41 1.34 1.33 1.32 1.36 1.36 1.34 1.28
0.70 0.73 0.70 0.66 0.62 0.56 0.54 0.50 0.53 0.60 0.63 0.68 0.70 0.67 0.61 0.53 0.41 0.33 0.31 0.33 0.40 0.50 0.65 0.85 0.99 1.06 1.20 1.49 1.73 1.86 1.94 1.91 1.73 1.54 1.43 1.37 1.29 1.27 1.28 1.26 1.31 1.32 1.34
0.76 0.68 0.64 0.58 0.54 0.53 0.47 0.42 0.40 0.42 0.47 0.52 0.55 0.57 0.55 0.46 0.34 0.34 0.33 0.34 0.40 0.50 0.62 0.84 1.02 1.12 1.33 1.56 1.70 1.72 1.71 1.67 1.62 1.49 1.37 1.31 1.27 1.26 1.25 1.24 1.27 1.23 1.27
0.67 0.64 0.56 0.53 0.51 0.46 0.45 0.42 0.35 0.32 0.32 0.33 0.32 0.33 0.34 0.36 0.33 0.31 0.33 0.37 0.43 0.52 0.64 0.92 1.11 1.20 1.37 1.52 1.62 1.58 1.51 1.47 1.43 1.39 1.35 1.28 1.23 1.22 1.24 1.20 1.17 1.17 1.21
0.53 0.55 0.50 0.44 0.44 0.44 0.44 0.50 0.46 0.33 0.27 0.26 0.25 0.26 0.27 0.28 0.28 0.29 0.32 0.38 0.43 0.51 0.67 0.95 1.17 1.30 1.39 1.43 1.48 1.47 1.43 1.36 1.28 1.26 1.25 1.22 1.19 1.17 1.16 1.13 1.09 1.09 1.10
0.46 0.43 0.41 0.38 0.40 0.41 0.38 0.37 0.39 0.43 0.41 0.34 0.26 0.25 0.25 0.25 0.27 0.30 0.33 0.40 0.52 0.59 0.77 0.96 1.15 1.23 1.29 1.34 1.34 1.33 1.32 1.26 1.20 1.21 1.26 1.23 1.14 1.08 1.02 1.01 1.02 0.99 0.97
0.45 0.42 0.36 0.34 0.35 0.36 0.35 0.30 0.28 0.30 0.36 0.36 0.31 0.28 0.27 0.27 0.29 0.35 0.40 0.51 0.63 0.70 0.79 0.89 0.97 1.05 1.11 1.17 1.18 1.16 1.16 1.14 1.09 1.10 1.11 1.11 1.07 0.99 0.93 0.88 0.88 0.82 0.81
0.45 0.44 0.40 0.36 0.34 0.33 0.33 0.30 0.28 0.26 0.29 0.32 0.33 0.31 0.30 0.39 0.47 0.49 0.50 0.52 0.60 0.70 0.75 0.81 0.82 0.84 0.89 0.94 0.92 0.90 0.92 0.92 0.93 0.95 0.94 0.95 0.98 0.95 0.87 0.82 0.80 0.80 0.83
0.41 0.41 0.40 0.40 0.40 0.38 0.35 0.35 0.34 0.32 0.32 0.35 0.32 0.28 0.37 0.46 0.57 0.57 0.55 0.54 0.59 0.63 0.64 0.67 0.70 0.71 0.69 0.69 0.73 0.74 0.78 0.83 0.87 0.88 0.87 0.86 0.85 0.81 0.76 0.72 0.73 0.72 0.71
0.43 0.43 0.40 0.40 0.40 0.39 0.38 0.36 0.35 0.33 0.32 0.34 0.31 0.28 0.38 0.45 0.54 0.55 0.55 0.58 0.60 0.63 0.63 0.62 0.59 0.61 0.63 0.64 0.65 0.70 0.75 0.77 0.79 0.82 0.81 0.78 0.78 0.74 0.69 0.67 0.67 0.69 0.67
0.48 0.45 0.43 0.44 0.42 0.37 0.34 0.31 0.31 0.32 0.32 0.31 0.30 0.31 0.36 0.46 0.55 0.61 0.63 0.64 0.64 0.62 0.58 0.57 0.60 0.62 0.60 0.58 0.58 0.62 0.65 0.65 0.70 0.77 0.79 0.73 0.69 0.67 0.63 0.62 0.64 0.67 0.66
0.47 0.42 0.38 0.40 0.43 0.40 0.35 0.33 0.32 0.31 0.31 0.32 0.33 0.34 0.38 0.45 0.52 0.60 0.67 0.70 0.71 0.69 0.64 0.61 0.62 0.61 0.57 0.55 0.56 0.56 0.54 0.55 0.56 0.60 0.62 0.59 0.56 0.54 0.54 0.55 0.55 0.57 0.59
0.45 0.44 0.40 0.40 0.39 0.37 0.37 0.34 0.33 0.34 0.34 0.34 0.34 0.34 0.36 0.40 0.47 0.52 0.58 0.64 0.68 0.72 0.74 0.75 0.74 0.67 0.59 0.52 0.50 0.49 0.56 0.57 0.52 0.50 0.54 0.52 0.46 0.46 0.49 0.50 0.50 0.51 0.53
0.36 0.39 0.40 0.40 0.39 0.36 0.34 0.32 0.29 0.28 0.30 0.33 0.33 0.31 0.30 0.34 0.40 0.41 0.44 0.49 0.56 0.64 0.70 0.77 0.79 0.70 0.59 0.52 0.50 0.51 0.49 0.41 0.36 0.39 0.50 0.51 0.44 0.41 0.42 0.45 0.44 0.44 0.47